FW2904 Weather Reports


time (UTC)temp
C
wind
direction
speed
KPH
gust
KPH
rain 1hr
cm
rain 24hr
cm
rain mn
cm
humidity
%
barometer
mb
20260502130633 2 355 1.6 6.4 0.00 0.00 0.00 71 1025.2
20260502130133 1 355 0.0 0.0 0.00 0.00 0.00 71 1025.1
20260502123629 0 355 0.0 4.8 0.00 0.00 0.00 76 1025.0
20260502123131 0 355 0.0 1.6 0.00 0.00 0.00 75 1025.1
20260502122629 0 355 0.0 0.0 0.00 0.00 0.00 73 1025.0
20260502122126 0 355 0.0 0.0 0.00 0.00 0.00 73 1025.1
20260502121633 0 355 0.0 0.0 0.00 0.00 0.00 71 1025.1
20260502121629 0 355 0.0 0.0 0.00 0.00 0.00 72 1025.1
20260502120627 0 355 0.0 0.0 0.00 0.00 0.00 71 1025.1
20260502120126 0 355 0.0 1.6 0.00 0.00 0.00 70 1025.1
20260502115627 0 355 0.0 1.6 0.00 0.00 0.00 69 1025.1
20260502115129 0 355 0.0 1.6 0.00 0.00 0.00 68 1025.2
20260502114630 0 355 0.0 0.0 0.00 0.00 0.00 67 1025.2
20260502114127 1 355 0.0 0.0 0.00 0.00 0.00 66 1025.2
20260502113627 1 355 0.0 3.2 0.00 0.00 0.00 66 1025.2
20260502113127 1 355 1.6 4.8 0.00 0.00 0.00 65 1025.4
20260502112625 2 355 1.6 6.4 0.00 0.00 0.00 64 1025.4
20260502112127 2 355 3.2 8.0 0.00 0.00 0.00 64 1025.4
20260502111625 2 355 3.2 9.7 0.00 0.00 0.00 64 1025.2
20260502111127 2 355 3.2 9.7 0.00 0.00 0.00 64 1025.4
20260502110625 2 355 3.2 8.0 0.00 0.00 0.00 64 1025.2
20260502110127 2 355 1.6 8.0 0.00 0.00 0.00 63 1025.2
20260502105626 2 355 1.6 4.8 0.00 0.00 0.00 63 1025.2
20260502105124 2 355 3.2 8.0 0.00 0.00 0.00 64 1025.4
20260502104623 2 355 3.2 9.7 0.00 0.00 0.00 64 1025.4
20260502104123 2 355 3.2 9.7 0.00 0.00 0.00 64 1025.4
20260502103623 2 355 3.2 8.0 0.00 0.00 0.00 64 1025.5
20260502103129 2 355 4.8 9.7 0.00 0.00 0.00 65 1025.5
20260502103123 2 355 3.2 8.0 0.00 0.00 0.00 64 1025.4
20260502102123 2 355 4.8 9.7 0.00 0.00 0.00 65 1025.5
20260502101625 2 355 4.8 9.7 0.00 0.00 0.00 64 1025.5
20260502101122 2 355 4.8 8.0 0.00 0.00 0.00 64 1025.5
20260502100623 2 355 3.2 8.0 0.00 0.00 0.00 63 1025.5
20260502100122 2 355 3.2 12.9 0.00 0.00 0.00 63 1025.5
20260502091123 2 355 1.6 6.4 0.00 0.00 0.00 66 1025.4
20260502090622 2 355 0.0 4.8 0.00 0.00 0.00 65 1025.1
20260502090120 2 355 1.6 4.8 0.00 0.00 0.00 65 1025.4
20260502071110 2 355 1.6 6.4 0.00 0.00 0.00 64 1026.0
20260502070613 2 355 1.6 6.4 0.00 0.00 0.00 64 1026.0
20260502070112 2 355 1.6 9.7 0.00 0.00 0.00 63 1026.1
20260502065615 3 355 0.0 0.0 0.00 0.00 0.00 60 1026.1
20260502065610 2 355 1.6 9.7 0.00 0.00 0.00 61 1026.1
20260502064607 3 355 0.0 0.0 0.00 0.00 0.00 59 1026.1
20260502064107 3 355 0.0 0.0 0.00 0.00 0.00 56 1026.0
20260502063604 3 355 0.0 0.0 0.00 0.00 0.00 56 1026.0
20260502063106 4 355 0.0 0.0 0.00 0.00 0.00 57 1026.0
20260502062606 4 355 0.0 0.0 0.00 0.00 0.00 56 1026.0
20260502062103 4 355 0.0 0.0 0.00 0.00 0.00 56 1026.0
20260502061602 4 355 0.0 0.0 0.00 0.00 0.00 55 1026.0
20260502061105 4 355 0.0 1.6 0.00 0.00 0.00 55 1026.0
20260502060603 4 355 0.0 3.2 0.00 0.00 0.00 55 1026.0
20260502060105 4 355 1.6 3.2 0.00 0.00 0.00 55 1026.0
20260502055605 4 355 0.0 3.2 0.00 0.00 0.00 54 1026.1
20260502055109 5 355 0.0 3.2 0.00 0.00 0.00 53 1026.0
20260502055103 5 355 0.0 3.2 0.00 0.00 0.00 55 1026.1
20260502054105 5 355 3.2 4.8 0.00 0.00 0.00 53 1026.0
20260502053607 5 355 3.2 4.8 0.00 0.00 0.00 55 1026.0
20260502053601 5 355 3.2 4.8 0.00 0.00 0.00 54 1026.0
20260502052601 5 355 3.2 3.2 0.00 0.00 0.00 55 1026.0
20260502052101 5 355 3.2 3.2 0.00 0.00 0.00 56 1026.0
20260502051601 5 355 3.2 3.2 0.00 0.00 0.00 56 1026.1
20260502051109 5 355 0.0 6.4 0.00 0.00 0.00 54 1026.1
20260502051103 5 355 1.6 6.4 0.00 0.00 0.00 56 1026.0
20260502050738 5 355 1.6 4.8 0.00 0.00 0.00 52 1026.1
20260502045101 5 355 1.6 4.8 0.00 0.00 0.00 51 1026.1
20260502044601 6 355 1.6 4.8 0.00 0.00 0.00 49 1026.0
20260502044104 6 355 1.6 4.8 0.00 0.00 0.00 47 1026.0
20260502044100 6 355 1.6 3.2 0.00 0.00 0.00 47 1026.0
20260502043101 7 355 1.6 6.4 0.00 0.00 0.00 46 1026.0
20260502042559 7 355 1.6 6.4 0.00 0.00 0.00 44 1026.0
20260502042101 7 355 1.6 6.4 0.00 0.00 0.00 44 1025.8
20260502041602 7 355 1.6 6.4 0.00 0.00 0.00 44 1026.0
20260502041059 7 355 3.2 6.4 0.00 0.00 0.00 43 1025.8
20260502040600 7 355 3.2 6.4 0.00 0.00 0.00 44 1025.8
20260502040057 8 355 4.8 12.9 0.00 0.00 0.00 43 1025.8
20260502035559 8 355 4.8 12.9 0.00 0.00 0.00 42 1025.8
20260502035057 8 355 3.2 8.0 0.00 0.00 0.00 43 1025.7
20260502034600 8 355 4.8 8.0 0.00 0.00 0.00 42 1025.7
20260502034057 8 355 4.8 8.0 0.00 0.00 0.00 42 1025.7
20260502033557 8 355 3.2 6.4 0.00 0.00 0.00 42 1025.7
20260502033058 8 355 3.2 6.4 0.00 0.00 0.00 41 1025.6
20260502032700 9 355 4.8 8.0 0.00 0.00 0.00 40 1025.5
20260502032603 9 355 4.8 8.0 0.00 0.00 0.00 39 1025.5
20260502032557 8 355 3.2 6.4 0.00 0.00 0.00 41 1025.6
20260502032358 10 355 3.2 6.4 0.00 0.00 0.00 38 1025.4
20260502031231 10 355 3.2 8.0 0.00 0.00 0.00 37 1025.2
20260502030053 10 355 3.2 8.0 0.00 0.00 0.00 37 1025.2
20260502025553 10 355 3.2 8.0 0.00 0.00 0.00 36 1025.2
20260502025051 10 355 3.2 8.0 0.00 0.00 0.00 35 1025.1
20260502024548 11 355 4.8 8.0 0.00 0.00 0.00 34 1025.0
20260502024048 11 355 4.8 8.0 0.00 0.00 0.00 34 1024.9
20260502023549 11 355 4.8 8.0 0.00 0.00 0.00 33 1024.9
20260502023053 12 355 4.8 8.0 0.00 0.00 0.00 31 1024.7
20260502023049 11 355 4.8 8.0 0.00 0.00 0.00 32 1024.8
20260502022050 12 355 3.2 8.0 0.00 0.00 0.00 31 1024.7
20260502021549 12 355 3.2 12.9 0.00 0.00 0.00 31 1024.5
20260502021051 12 355 3.2 12.9 0.00 0.00 0.00 30 1024.5
20260502020552 12 355 3.2 6.4 0.00 0.00 0.00 30 1024.5
20260502020049 13 355 3.2 8.0 0.00 0.00 0.00 29 1024.4
20260502015722 13 355 3.2 12.9 0.00 0.00 0.00 28 1024.3
20260502015555 13 355 4.8 12.9 0.00 0.00 0.00 29 1024.4
20260502015551 13 355 4.8 8.0 0.00 0.00 0.00 29 1024.4
20260502014048 13 355 3.2 12.9 0.00 0.00 0.00 28 1024.3
20260502013549 14 355 3.2 12.9 0.00 0.00 0.00 27 1024.3
20260502013048 14 355 4.8 14.5 0.00 0.00 0.00 27 1024.2
20260502012549 15 355 4.8 14.5 0.00 0.00 0.00 26 1024.2
20260502012047 15 355 3.2 9.7 0.00 0.00 0.00 25 1024.2
20260502011553 16 355 3.2 9.7 0.00 0.00 0.00 23 1024.1
20260502011546 15 355 3.2 8.0 0.00 0.00 0.00 24 1024.1
20260502010546 16 355 4.8 14.5 0.00 0.00 0.00 23 1024.1
20260502010049 16 355 4.8 14.5 0.00 0.00 0.00 23 1024.1
20260502005555 17 355 4.8 14.5 0.00 0.00 0.00 23 1024.0
20260502005548 16 355 4.8 12.9 0.00 0.00 0.00 24 1024.0
20260502004545 17 355 6.4 14.5 0.00 0.00 0.00 22 1023.8
20260502004045 17 351 6.4 16.1 0.00 0.00 0.00 24 1024.0
20260502003545 17 351 6.4 16.1 0.00 0.00 0.00 24 1024.0
20260502003045 17 350 6.4 14.5 0.00 0.00 0.00 24 1024.0
20260502002546 17 348 4.8 12.9 0.00 0.00 0.00 24 1024.0
20260502002044 17 348 6.4 12.9 0.00 0.00 0.00 23 1024.0
20260502001545 17 348 4.8 12.9 0.00 0.00 0.00 24 1024.0
20260502001045 16 347 4.8 9.7 0.00 0.00 0.00 25 1024.0
20260502000540 16 347 4.8 12.9 0.00 0.00 0.00 24 1024.0
20260502000040 16 347 4.8 12.9 0.00 0.00 0.00 24 1024.0
20260501235543 16 347 4.8 12.9 0.00 0.00 0.00 25 1024.0
20260501235050 16 347 8.0 19.3 0.00 0.00 0.00 23 1023.8
20260501235043 16 347 6.4 12.9 0.00 0.00 0.00 25 1024.0
20260501234540 16 347 8.0 16.1 0.00 0.00 0.00 24 1024.0
20260501233542 16 346 9.7 25.7 0.00 0.00 0.00 22 1023.8
20260501233040 17 346 8.0 25.7 0.00 0.00 0.00 21 1024.0
20260501232542 17 351 9.7 20.9 0.00 0.00 0.00 22 1023.8
20260501232043 18 355 9.7 20.9 0.00 0.00 0.00 21 1023.8
20260501231541 18 0 8.0 17.7 0.00 0.00 0.00 21 1023.7
20260501231050 18 0 6.4 20.9 0.00 0.00 0.00 21 1023.8
20260501231043 18 5 8.0 20.9 0.00 0.00 0.00 22 1023.7
20260501230048 18 350 8.0 14.5 0.00 0.00 0.00 22 1023.7
20260501230040 18 350 6.4 16.1 0.00 0.00 0.00 24 1023.7
20260501225050 18 350 6.4 22.5 0.00 0.00 0.00 23 1023.8
20260501225042 18 350 6.4 14.5 0.00 0.00 0.00 23 1023.7
20260501224717 17 350 6.4 22.5 0.00 0.00 0.00 23 1023.8
20260501224219 17 355 8.0 19.3 0.00 0.00 0.00 23 1023.8
20260501223040 16 355 9.7 24.1 0.00 0.00 0.00 23 1024.0
20260501222540 16 0 8.0 24.1 0.00 0.00 0.00 22 1024.0
20260501222040 17 355 4.8 17.7 0.00 0.00 0.00 23 1023.8
20260501221541 16 0 6.4 17.7 0.00 0.00 0.00 24 1024.0
20260501221050 17 27 6.4 20.9 0.00 0.00 0.00 21 1024.1
20260501221041 16 0 9.7 22.5 0.00 0.00 0.00 23 1024.0
20260501220542 17 0 9.7 22.5 0.00 0.00 0.00 21 1024.1
20260501220042 17 23 8.0 20.9 0.00 0.00 0.00 21 1024.1
20260501215042 17 38 6.4 14.5 0.00 0.00 0.00 26 1024.1
20260501214542 16 37 4.8 14.5 0.00 0.00 0.00 26 1024.2
20260501214040 16 37 6.4 14.5 0.00 0.00 0.00 24 1024.2
20260501213542 16 37 6.4 14.5 0.00 0.00 0.00 24 1024.3
20260501213038 16 37 6.4 14.5 0.00 0.00 0.00 23 1024.3
20260501212539 16 37 8.0 27.4 0.00 0.00 0.00 24 1024.4
20260501212046 17 344 6.4 16.1 0.00 0.00 0.00 22 1024.3
20260501212038 16 36 6.4 27.4 0.00 0.00 0.00 22 1024.4
20260501211036 17 346 6.4 16.1 0.00 0.00 0.00 21 1024.4
20260501210540 17 345 9.7 24.1 0.00 0.00 0.00 24 1024.5
20260501210534 17 345 8.0 24.1 0.00 0.00 0.00 23 1024.4
20260501205537 17 329 11.3 33.8 0.00 0.00 0.00 22 1024.7
20260501205531 17 330 11.3 33.8 0.00 0.00 0.00 22 1024.4
20260501204532 17 344 6.4 17.7 0.00 0.00 0.00 25 1024.5
20260501204032 17 346 4.8 14.5 0.00 0.00 0.00 25 1024.5
20260501203532 16 346 4.8 14.5 0.00 0.00 0.00 23 1024.5
20260501203031 16 345 6.4 16.1 0.00 0.00 0.00 21 1024.7
20260501202533 16 344 9.7 24.1 0.00 0.00 0.00 21 1024.8
20260501202529 16 348 8.0 16.1 0.00 0.00 0.00 24 1024.7
20260501202132 16 344 9.7 24.1 0.00 0.00 0.00 23 1024.8
20260501201030 16 347 8.0 20.9 0.00 0.00 0.00 25 1024.8
20260501200530 16 347 9.7 22.5 0.00 0.00 0.00 22 1024.9
20260501200028 15 339 9.7 22.5 0.00 0.00 0.00 23 1024.8
20260501195530 15 322 8.0 20.9 0.00 0.00 0.00 27 1024.8
20260501195028 15 322 6.4 19.3 0.00 0.00 0.00 24 1024.8
20260501194534 15 321 9.7 25.7 0.00 0.00 0.00 24 1024.8
20260501194528 15 321 8.0 19.3 0.00 0.00 0.00 24 1024.8
20260501193529 16 321 9.7 25.7 0.00 0.00 0.00 22 1024.9
20260501193028 15 307 8.0 17.7 0.00 0.00 0.00 25 1024.8
20260501192528 15 309 8.0 20.9 0.00 0.00 0.00 25 1024.9
20260501192028 15 308 6.4 20.9 0.00 0.00 0.00 23 1024.9
20260501191528 15 313 6.4 16.1 0.00 0.00 0.00 26 1024.9
20260501191034 15 316 8.0 16.1 0.00 0.00 0.00 23 1024.9
20260501191028 15 315 8.0 16.1 0.00 0.00 0.00 25 1025.0
20260501190028 15 318 4.8 16.1 0.00 0.00 0.00 24 1025.1
20260501185526 15 320 3.2 6.4 0.00 0.00 0.00 25 1025.1
20260501185031 15 320 9.7 20.9 0.00 0.00 0.00 30 1025.1
20260501185027 15 320 4.8 20.9 0.00 0.00 0.00 27 1025.2
20260501184033 15 277 6.4 16.1 0.00 0.00 0.00 28 1025.2
20260501184026 15 315 8.0 19.3 0.00 0.00 0.00 28 1025.1
20260501183025 15 277 8.0 17.7 0.00 0.00 0.00 25 1025.4
20260501182524 14 276 8.0 19.3 0.00 0.00 0.00 25 1025.4
20260501182032 14 271 4.8 12.9 0.00 0.00 0.00 29 1025.4
20260501182026 14 274 6.4 19.3 0.00 0.00 0.00 26 1025.2
20260501181026 13 271 4.8 16.1 0.00 0.00 0.00 29 1025.4
20260501180530 13 271 4.8 9.7 0.00 0.00 0.00 28 1025.5
20260501180524 13 271 4.8 16.1 0.00 0.00 0.00 27 1025.5
20260501175524 13 271 6.4 14.5 0.00 0.00 0.00 30 1025.5
20260501175022 13 271 8.0 17.7 0.00 0.00 0.00 29 1025.5
20260501174528 13 272 8.0 22.5 0.00 0.00 0.00 31 1025.7
20260501174521 13 271 9.7 22.5 0.00 0.00 0.00 28 1025.6
20260501174157 12 279 8.0 16.1 0.00 0.00 0.00 30 1025.8
20260501173524 12 279 9.7 16.1 0.00 0.00 0.00 31 1025.6
20260501173022 12 279 9.7 16.1 0.00 0.00 0.00 29 1025.7
20260501172529 12 281 8.0 16.1 0.00 0.00 0.00 32 1025.7
20260501172024 12 279 8.0 16.1 0.00 0.00 0.00 31 1025.8
20260501171023 12 281 6.4 16.1 0.00 0.00 0.00 32 1025.7
20260501170520 12 281 6.4 20.9 0.00 0.00 0.00 30 1025.7
20260501170022 12 281 6.4 20.9 0.00 0.00 0.00 31 1025.8
20260501165520 12 281 8.0 17.7 0.00 0.00 0.00 34 1025.8
20260501165022 12 281 8.0 17.7 0.00 0.00 0.00 31 1025.8
20260501164520 12 277 8.0 16.1 0.00 0.00 0.00 33 1025.8
20260501164020 12 277 8.0 16.1 0.00 0.00 0.00 35 1025.7
20260501163520 12 277 9.7 20.9 0.00 0.00 0.00 37 1025.7
20260501163019 11 277 9.7 20.9 0.00 0.00 0.00 36 1025.8
20260501162528 11 279 8.0 19.3 0.00 0.00 0.00 35 1025.7
20260501162522 11 279 8.0 19.3 0.00 0.00 0.00 34 1025.8
20260501161520 11 282 8.0 20.9 0.00 0.00 0.00 35 1025.7
20260501161020 11 283 9.7 20.9 0.00 0.00 0.00 39 1025.8
20260501160524 11 286 8.0 22.5 0.00 0.00 0.00 39 1025.8
20260501160518 11 286 9.7 20.9 0.00 0.00 0.00 37 1025.8
20260501155522 10 286 9.7 22.5 0.00 0.00 0.00 39 1025.8
20260501155516 10 290 9.7 22.5 0.00 0.00 0.00 39 1025.8
20260501155022 10 290 11.3 22.5 0.00 0.00 0.00 40 1025.8
20260501154016 10 300 12.9 19.3 0.00 0.00 0.00 39 1025.8
20260501153514 10 302 11.3 20.9 0.00 0.00 0.00 42 1026.0
20260501153016 10 303 11.3 20.9 0.00 0.00 0.00 41 1026.0
20260501152512 9 316 9.7 16.1 0.00 0.00 0.00 43 1026.1
20260501152022 9 316 9.7 19.3 0.00 0.00 0.00 46 1026.1
20260501152014 9 316 9.7 16.1 0.00 0.00 0.00 43 1026.0
20260501151012 8 317 9.7 19.3 0.00 0.00 0.00 47 1026.1
20260501150512 8 321 9.7 19.3 0.00 0.00 0.00 50 1026.1
20260501150014 8 327 11.3 20.9 0.00 0.00 0.00 51 1026.1
20260501145518 7 340 11.3 22.5 0.00 0.00 0.00 55 1026.0
20260501145512 7 331 11.3 22.5 0.00 0.00 0.00 55 1026.0
20260501144514 7 351 9.7 19.3 0.00 0.00 0.00 57 1026.0
20260501144009 7 0 8.0 16.1 0.00 0.00 0.00 60 1025.8
20260501143511 6 5 8.0 16.1 0.00 0.00 0.00 60 1025.8
20260501143010 6 5 6.4 14.5 0.00 0.00 0.00 62 1026.0
20260501142509 5 11 6.4 14.5 0.00 0.00 0.00 65 1025.8